Tracking 20232 objects as of 18-Jan-2020
HD Live streaming from Space Station
objects crossing your sky now

ORBCOMM FM 4

Track ORBCOMM FM 4 now!
10-day predictions
ORBCOMM FM 4 is classified as:


NORAD ID: 25159
Int'l Code: 1998-007C
Perigee: 769.8 km
Apogee: 829.6 km
Inclination: 108.0 °
Period: 100.7 minutes
Semi major axis: 7170 km
RCS: 1.0023 m2 (large)
Launch date: February 10, 1998
Source: ORBCOMM (ORB)
Launch site: AIR FORCE WESTERN TEST RANGE (AFWTR)
aabbcc
Your satellite tracking list
Your tracking list is empty




NASA's NSSDC Master Catalog

Two Line Element Set (TLE):
1 25159U 98007C   20018.14145204  .00000034  00000-0  64139-4 0  9992
2 25159 108.0017  55.7201 0041686  81.4524 279.1334 14.29748576141480
Source of the keplerian elements: AFSPC